Showing default

HULIANWANG DIGUI-36, 64957

Orbit data source: Space-Track

HULIANWANG DIGUI-36, 64957 is a payload satellite owned by Zhongguo Xingwang (CN) in LEO that was launched on Sun, 27 Jul 2025 UTC via a CHANG ZHENG 6A launch vehicle from the Taiyaun Space Center, China (TSC). Payload-class satellites include a variety of spacecraft equipped with specific instruments for various scientific and technological missions. These include communications satellites like Starlink; space stations such as the ISS; scientific satellites like the Hubble; Earth observation satellites from companies like Planet Labs, Umbra, and HawkEye 360; GPS; miniature CubeSats for education and research; and military/defense satellites.

Loading next visibility...
Identifier
64957, 2025-159B
Orbit
LEO
Country
Flag of CNCN / PRC
Related business
Manufacturer
CAST
Mission
Operational Civil Communications
Bus & Motor
XINGWANG C, Unknown motor
Mass
~700 kg wet, ~700 kg dry
Launch date (UTC)
2025-07-27 (1 year ago)
Launch vehicle
CHANG ZHENG 6A
Launch site
Taiyaun Space Center, China (TSC)
Object type
Payload
Rocket body
Debris
Shape & HBR
Box + 2 Pan, 5.0 m
Radar Cross Section
5.935 m², Large (>1 m²)

Expand to show TLE details & history
Last TLE update: 5 hours ago

TLE from 5 hours ago
0 HULIANWANG DIGUI-36
1 64957U 25159B   26265.93155340 -.00000071  00000-0 -19875-3 0  9997
2 64957  86.4922 249.4703 0002216  84.4937 275.6450 13.24400617 56063
Epoch: 2026-09-22T22:21Z
TLE epoch observation values (Epoch: 2026-09-22T22:21:26.213Z)
Latitude
-0.00001°
Longitude
-87.67887°
Altitude
1,170.688 km
Speed
7.268 km/s
True Right ascension
16h 37m 52s
True Declination
0° 00' 00"
Sunlit
Object was in daylight at epoch
Visualization orbit readout
Latitude
Unknown
Longitude
Unknown
Altitude
Unknown
Speed
Unknown
Apparent Right ascension
Unknown
Apparent Declination
Unknown
Sunlit
N/A
Visualization observer readout
Local Sidereal Time
20:13:41
Azimuth
Unknown
Elevation
Unknown
Doppler factor
Unknown
Orbital elements
Apogee altitude
1,166.749 km
Perigee altitude
1,163.406 km
Semi-major axis
7,543.215 km
Eccentricity
0.00022
Inclination
86.4922°
RAAN
249.4703°
Arg. of periapsis
84.4937°
True anomaly
275.61973°
Mean anomaly
275.645°
Eccentric anomaly
275.63236°
Mean motion
3.3129 °/min
Orbital period
108.67 mins
BSTAR
-0.00019875
Loading maneuver chart data...
Computing Atmospheric mass density...
Loading historical data...
Loading historical data...
Loading historical data...
Loading historical data...
Loading historical data...
Loading historical data...
Loading historical data...

Documentation

Showing up to 5 results
|